Location: *
(60.1759°S, 155.0663°W)
Time: 01:28:47
(UTC+00:00)

Cosmos 468 - Pass Details

Date: 17 September 2019
Orbit: 761 x 784 km, 74.0° (Epoch: 15 October)

Event Time Altitude Azimuth Distance (km) Brightness Sun altitude
Rises 14:47:43 0° 213° (SSW) 3,299 7.6 -12.6°
Reaches altitude 10° 14:50:08 10° 214° (SW) 2,363 6.9 -12.3°
Maximum altitude 14:55:30 76° 298° (WNW) 812 4.5 -11.7°
Drops below altitude 10° 15:00:47 10° 23° (NNE) 2,325 7.1 -11.0°
Sets 15:03:09 0° 24° (NNE) 3,242 7.9 -10.7°
